Regional Weather Roundup
Issued by NWS

Home | Current Version | Previous Version | Text Only | Print | Product List | Glossary Off
Versions: 1 2 3 4 5 6 7 8 9 10 11 12 13 14 15 16 17 18 19 20 21 22 23 24 25 26 27 28 29 30 31 32 33 34 35 36 37 38 39 40 41 42 43 44 45 46 47 48 49 50

000
ASUS43 KIND 181709
RWRIN

WEATHER ROUNDUP FOR INDIANA
NATIONAL WEATHER SERVICE INDIANAPOLIS IN
1200 PM EST WED JAN 18 2017

NOTE: "FAIR" INDICATES FEW OR NO CLOUDS BELOW 12,000 FEET WITH NO
SIGNIFICANT WEATHER AND/OR OBSTRUCTIONS TO VISIBILITY.

* - STATION DOES NOT REPORT WEATHER SUCH AS PRECIPITATION OR FOG.

+ - STATION NOT QUALITY CONTROLLED BY THE NATIONAL WEATHER SERVICE.
    USE DATA WITH CAUTION...ESPECIALLY DEWPOINT AND RELATIVE
    HUMIDITY OBSERVATIONS.

INZ001>003-010>013-019-020-181800-
NORTHWEST INDIANA

CITY           SKY/WX    TMP DP  RH WIND       PRES   REMARKS
GARY /AIRPORT/ CLOUDY    36  34  93 SW8       30.16S FOG
KNOX *+        CLOUDY    34  25  69 SW8       30.16F WCI  27
LA PORTE +     CLOUDY    35  34  96 SW8       30.14F FOG     WCI  28
MICHIGAN CITY+ CLOUDY    36  36 100 S5        30.13F FOG
MONTICELLO +   CLOUDY    34  32  94 SW9       30.19S WCI  26
RENSSELAER +   CLOUDY    34  34 100 SW8       30.18F FOG     WCI  27
VALPARAISO     CLOUDY    35  34  96 SW13      30.15F FOG     WCI  26

$$

LMZ046-743>745-181800-
SOUTHERN LAKE MICHIGAN

STATION/POSITION TIME  TEMP    WIND        PRES    WAVE
                       AIR SEA DIR/SP/G            HT
                 (UTC) (F)     (DEG/KT/KT) (MB)    (FT)
BURNS HARBOR     1640   35     210/  8/ 10 1021.0F

$$

INZ004-005-014>016-021>024-181800-
NORTH CENTRAL INDIANA

CITY           SKY/WX    TMP DP  RH WIND       PRES   REMARKS
ELKHART        CLOUDY    36  32  87 W8        30.13F FOG
GOSHEN         CLOUDY    35  32  88 W7        30.13F FOG     WCI  29
LOGANSPORT +   CLOUDY    34  34 100 SW9       30.19S WCI  26
PERU/GRISSOM   CLOUDY    35  35 100 W9        30.16F WCI  28
ROCHESTER +    CLOUDY    36  36 100 SW9       30.16F
SOUTH BEND     CLOUDY    34  34 100 SW8       30.13F FOG     WCI  27
WARSAW +       CLOUDY    34  32  93 W9        30.14F WCI  26

$$

INZ006>009-017-018-025>027-181800-
NORTHEAST INDIANA

CITY           SKY/WX    TMP DP  RH WIND       PRES   REMARKS
ANGOLA *+      CLOUDY    36  36 100 W7        30.11F
AUBURN +       CLOUDY    36  32  87 W8        30.14F
FORT WAYNE     CLOUDY    37  33  85 W10       30.15F
HUNTINGTON +   CLOUDY    35  34  96 W8        30.16F WCI  29
KENDALLVILLE + CLOUDY    34  34  99 W10       30.13F FOG     WCI  26

$$

INZ028-029-035-036-043>045-051>053-181800-
WEST CENTRAL INDIANA

CITY           SKY/WX    TMP DP  RH WIND       PRES   REMARKS
CRAWFORDSVL +  CLOUDY    33  33 100 SW10      30.20F FOG     WCI  25
GREENCASTLE +  CLOUDY    36  36 100 W5        30.21F FOG
LAFAYETTE      CLOUDY    34  34 100 SW8       30.19F WCI  27
TERRE HAUTE    CLOUDY    38  34  85 W9        30.23F

$$

INZ030>032-037>040-046>048-054>057-064-065-181800-
CENTRAL INDIANA

CITY           SKY/WX    TMP DP  RH WIND       PRES   REMARKS
ANDERSON       CLOUDY    36  32  87 SW6       30.19F
CP ATTERBURY + CLOUDY    37  36  93 SW7       30.22F FOG
COLUMBUS       LGT RAIN  37  37 100 W7        30.23F FOG
FISHERS *+     CLOUDY    34  34 100 W5        30.20  WCI  30
FRANKFORT +    CLOUDY    37  35  92 W13       30.21F
GREENWOOD *+   CLOUDY    38  38  97 W6        30.21F
INDIANAPOLIS   CLOUDY    37  36  96 W10       30.20F FOG
-EAGLE CREEK   CLOUDY    36  33  89 W7        30.19F
KOKOMO +       CLOUDY    35  34  96 W10       30.19S WCI  27
MARION +       CLOUDY    36  34  93 W9        30.19S
MT COMFORT *+  CLOUDY    36  34  93 W8        30.20F
SHELBYVILLE    CLOUDY    39  35  86 W7        30.20F FOG
ZIONSVILLE +   CLOUDY    35  33  93 W8        30.19F WCI  28

$$

INZ033-034-041-042-049-050-058-059-181800-
EAST CENTRAL INDIANA

CITY           SKY/WX    TMP DP  RH WIND       PRES   REMARKS
MUNCIE         CLOUDY    37  33  85 W9        30.18S

$$

INZ060-061-067>069-081>083-085>088-181800-
SOUTHWEST INDIANA

CITY           SKY/WX    TMP DP  RH WIND       PRES   REMARKS
EVANSVILLE     CLOUDY    42  35  76 W3        30.25F
HUNTINGBURG *+ CLOUDY    40  36  86 VRB6      30.25F
WASHINGTON +   CLOUDY    40  35  84 W7        30.25S

$$

INZ062-063-066-070>080-084-089>092-181800-
SOUTH CENTRAL AND SOUTHEAST INDIANA

CITY           SKY/WX    TMP DP  RH WIND       PRES   REMARKS
BLOOMINGTON    CLOUDY    38  35  89 W7        30.22S
MADISON *+     CLOUDY    39  36  87 W6        30.24F
NORTH VERNON + CLOUDY   N/A N/A N/A W7        30.23
SEYMOUR +      CLOUDY    41  37  87 W8        30.23F

$$





USA.gov is the U.S. government's official web portal to all federal, state and local government web resources and services.